Weather History for KSKA - December, 2012

Change the Weather History Date:

Tuesday, December 25, 2012

  Actual Average Record
Temperature  
Mean Temperature 27 °F -  
Max Temperature 30 °F 31 °F 46 °F (2005)
Min Temperature 24 °F 21 °F 8 °F (1996)
Degree Days  
Heating Degree Days 38    
Moisture  
Dew Point 28 °F    
Average Humidity 100    
Maximum Humidity 100    
Minimum Humidity 99    
Precipitation  
Precipitation 0.01 in - - ()
Sea Level Pressure  
Sea Level Pressure 29.98 in    
Wind  
Wind Speed 4 mph (East)    
Max Wind Speed 10 mph    
Max Gust Speed -    
Visibility 2 miles    
Events Fog , Rain , Snow    
Averages and records for this station are not official NWS values.
T = Trace of Precipitation, MM = Missing Value Source: NWS Daily Summary

Daily Weather History Graph

Daily Weather History Graph

Search for Another Location

Airport or City:

Trip Planner

Search our weather history database for the weather conditions in past years. The results will help you decide how hot, cold, wet, or windy it might be!

Date:

Astronomy

Dec. 25, 2012 Rise Set
Actual Time 7:37 AM PST 4:04 PM PST
Civil Twilight 7:01 AM PST 4:40 PM PST
Nautical Twilight 6:22 AM PST 5:19 PM PST
Astronomical Twilight 5:45 AM PST 5:57 PM PST
Moon 2:18 PM PST (12/25) 5:11 AM PST (12/25)
Length of Visible Light 9h 38m
Length of Day
8h 26m
Waxing Gibbous, 94% of the Moon is Illuminated
Dec 25
Waxing Gibbous
Dec 28
Full
Jan 4
Last Quarter
Jan 11
New
Jan 18
First Quarter

Hourly Weather History & Observations

Time (PST) Temp. Windchill Dew Point Humidity Pressure Visibility Wind Dir Wind Speed Gust Speed Precip Events Conditions
12:01 AM 26.6 °F - 26.6 °F 100% 30.11 in 1.0 mi SE 2.3 mph - N/A   Mist
12:11 AM 26.6 °F - 26.6 °F 100% 30.11 in 0.8 mi SE 2.3 mph - N/A   Mist
12:12 AM 26.6 °F - 26.6 °F 100% 30.11 in 0.8 mi SE 2.3 mph - N/A   Mist
12:17 AM 26.6 °F - 26.6 °F 100% 30.11 in 0.8 mi SSE 2.3 mph - N/A   Mist
12:22 AM 26.6 °F - 26.6 °F 100% 30.11 in 0.5 mi Calm Calm - N/A Fog Light Freezing Fog
12:32 AM 26.6 °F 22.6 °F 26.6 °F 100% 30.11 in 0.5 mi SSE 3.5 mph - N/A Fog Light Freezing Fog
12:41 AM 26.6 °F - 26.6 °F 100% 30.11 in 0.5 mi ESE 2.3 mph - N/A Fog Light Freezing Fog
12:50 AM 26.6 °F 22.6 °F 26.6 °F 100% 30.11 in 0.5 mi ESE 3.5 mph - N/A Fog Light Freezing Fog
12:58 AM 26.6 °F 22.6 °F 26.6 °F 100% 30.20 in 0.5 mi ESE 3.5 mph - 0.00 in Fog Light Freezing Fog
1:03 AM 26.6 °F 22.6 °F 26.6 °F 100% 30.11 in 0.8 mi SE 3.5 mph - N/A   Mist
1:08 AM 26.6 °F - 26.6 °F 100% 30.12 in 0.5 mi SE 2.3 mph - N/A Fog Light Freezing Fog
1:13 AM 26.6 °F 22.6 °F 26.6 °F 100% 30.12 in 0.8 mi SSE 3.5 mph - N/A   Mist
1:15 AM 26.6 °F 21.2 °F 26.6 °F 100% 30.12 in 0.8 mi SSE 4.6 mph - N/A Rain Light Freezing Rain
1:25 AM 26.6 °F 20.0 °F 26.6 °F 100% 30.12 in 0.5 mi SSE 5.8 mph - N/A Fog , Rain Light Freezing Rain
1:30 AM 26.6 °F 20.0 °F 26.6 °F 100% 30.11 in 0.5 mi SSE 5.8 mph - N/A Fog , Rain Light Freezing Rain
1:45 AM 26.6 °F 20.0 °F 26.6 °F 100% 30.11 in 0.5 mi SSE 5.8 mph - N/A Fog , Rain Light Freezing Rain
1:58 AM 26.6 °F 21.2 °F 26.6 °F 100% 30.20 in 0.5 mi SSE 4.6 mph - 0.00 in Fog , Rain Light Freezing Rain
2:03 AM 26.6 °F 21.2 °F 26.6 °F 100% 30.11 in 0.5 mi SSE 4.6 mph - N/A Fog , Rain Light Freezing Rain
2:08 AM 26.6 °F 22.6 °F 26.6 °F 100% 30.11 in 0.5 mi SE 3.5 mph - N/A Fog , Rain Light Freezing Rain
2:13 AM 28.4 °F 23.3 °F 28.4 °F 100% 30.10 in 0.5 mi SE 4.6 mph - N/A Fog , Rain Light Freezing Rain
2:28 AM 28.4 °F - 28.4 °F 100% 30.10 in 0.5 mi ESE 2.3 mph - N/A Fog Light Freezing Fog
2:32 AM 28.4 °F - 28.4 °F 100% 30.10 in 0.5 mi ESE 2.3 mph - N/A Fog Light Freezing Fog
2:34 AM 28.4 °F 24.6 °F 28.4 °F 100% 30.10 in 0.2 mi ESE 3.5 mph - N/A Fog Light Freezing Fog
2:36 AM 28.4 °F 24.6 °F 28.4 °F 100% 30.10 in 0.2 mi ESE 3.5 mph - N/A Fog Light Freezing Fog
2:40 AM 28.4 °F - 28.4 °F 100% 30.10 in 0.2 mi East 2.3 mph - N/A Fog Light Freezing Fog
2:51 AM 28.4 °F 24.6 °F 28.4 °F 100% 30.09 in 0.5 mi ESE 3.5 mph - N/A Fog Light Freezing Fog
2:52 AM 28.4 °F 22.2 °F 28.4 °F 100% 30.09 in 0.5 mi East 5.8 mph - N/A Fog Light Freezing Fog
2:54 AM 28.4 °F 22.2 °F 28.4 °F 100% 30.09 in 1.0 mi East 5.8 mph - N/A   Mist
2:55 AM 28.4 °F 22.2 °F 28.4 °F 100% 30.09 in 1.0 mi East 5.8 mph - N/A   Mist
2:58 AM 28.0 °F 22.8 °F 28.0 °F 100% 30.18 in 1.0 mi East 4.6 mph - N/A   Mist
3:01 AM 28.4 °F 22.2 °F 28.4 °F 100% 30.09 in 1.0 mi East 5.8 mph - N/A   Mist
3:02 AM 28.4 °F 24.6 °F 28.4 °F 100% 30.09 in 1.0 mi East 3.5 mph - N/A   Mist
3:04 AM 28.4 °F 24.6 °F 28.4 °F 100% 30.09 in 1.0 mi East 3.5 mph - N/A   Mist
3:06 AM 28.4 °F 23.3 °F 28.4 °F 100% 30.09 in 0.5 mi ESE 4.6 mph - N/A Fog , Rain Light Freezing Rain
3:16 AM 28.4 °F 22.2 °F 28.4 °F 100% 30.09 in 0.8 mi SE 5.8 mph - N/A Rain Light Freezing Rain
3:26 AM 28.4 °F 22.2 °F 28.4 °F 100% 30.08 in 0.5 mi ESE 5.8 mph - N/A Fog , Rain Light Freezing Rain
3:41 AM 28.4 °F 22.2 °F 28.4 °F 100% 30.07 in 0.5 mi ESE 5.8 mph - N/A Fog , Rain Light Freezing Rain
3:56 AM 28.4 °F 22.2 °F 28.4 °F 100% 30.08 in 0.8 mi ESE 5.8 mph - N/A   Light Freezing Drizzle
3:58 AM 27.9 °F 21.5 °F 27.9 °F 100% 30.16 in 0.8 mi ESE 5.8 mph - 0.00 in   Light Freezing Drizzle
4:03 AM 28.4 °F 23.3 °F 28.4 °F 100% 30.07 in 1.0 mi East 4.6 mph - N/A   Light Freezing Drizzle
4:08 AM 28.4 °F 24.6 °F 28.4 °F 100% 30.07 in 0.8 mi ESE 3.5 mph - N/A   Light Freezing Drizzle
4:18 AM 26.6 °F - 26.6 °F 100% 30.07 in 0.8 mi East 2.3 mph - N/A   Light Freezing Drizzle
4:23 AM 26.6 °F - 26.6 °F 100% 30.06 in 0.5 mi East 2.3 mph - N/A Fog Light Freezing Drizzle
4:28 AM 26.6 °F 22.6 °F 26.6 °F 100% 30.06 in 0.5 mi East 3.5 mph - N/A Fog Light Freezing Drizzle
4:33 AM 26.6 °F 22.6 °F 26.6 °F 100% 30.06 in 0.5 mi ENE 3.5 mph - N/A Fog Light Freezing Drizzle
4:38 AM 26.6 °F 22.6 °F 26.6 °F 100% 30.06 in 0.2 mi East 3.5 mph - N/A Fog Light Freezing Drizzle
4:58 AM 24.8 °F 17.9 °F 24.8 °F 100% 30.14 in 0.2 mi ENE 5.8 mph - 0.00 in Fog Light Freezing Drizzle
5:03 AM 24.8 °F 17.9 °F 24.8 °F 100% 30.05 in 0.2 mi ENE 5.8 mph - N/A Fog Light Freezing Drizzle
5:08 AM 24.8 °F 17.9 °F 24.8 °F 100% 30.05 in 0.2 mi ENE 5.8 mph - N/A Fog Light Freezing Drizzle
5:58 AM 25.7 °F 21.5 °F 25.7 °F 100% 30.13 in 0.2 mi ENE 3.5 mph - 0.00 in Fog , Rain Light Freezing Rain
6:58 AM 26.2 °F 18.6 °F 26.2 °F 100% 30.09 in 0.2 mi ENE 6.9 mph - 0.00 in Fog Light Freezing Drizzle
7:08 AM 26.6 °F 20.0 °F 26.6 °F 100% 30.00 in 0.2 mi ENE 5.8 mph - N/A Fog Light Freezing Drizzle
7:18 AM 26.6 °F 20.0 °F 26.6 °F 100% 29.99 in 0.2 mi ENE 5.8 mph - N/A Fog Light Freezing Drizzle
7:58 AM 26.6 °F 20.0 °F 26.6 °F 100% 30.06 in 0.2 mi NE 5.8 mph - 0.00 in Fog Light Freezing Drizzle
8:13 AM 26.6 °F 20.0 °F 26.6 °F 100% 29.97 in 0.2 mi ENE 5.8 mph - N/A Fog Light Freezing Drizzle
8:18 AM 26.6 °F 18.2 °F 26.6 °F 100% 29.97 in 0.2 mi ENE 8.1 mph - N/A Fog Light Freezing Drizzle
8:33 AM 26.6 °F 19.1 °F 26.6 °F 100% 29.97 in 0.2 mi ENE 6.9 mph - N/A Fog Light Freezing Drizzle
8:53 AM 26.6 °F 19.1 °F 26.6 °F 100% 29.96 in 0.5 mi ENE 6.9 mph - N/A Fog Light Freezing Drizzle
8:58 AM 27.0 °F 18.7 °F 27.0 °F 100% 30.05 in 1.2 mi ENE 8.1 mph - 0.00 in   Light Freezing Drizzle
9:03 AM 26.6 °F 18.2 °F 26.6 °F 100% 29.96 in 2.5 mi ENE 8.1 mph - N/A   Light Freezing Drizzle
9:13 AM 26.6 °F 18.2 °F 26.6 °F 100% 29.96 in 3.0 mi ENE 8.1 mph - N/A   Light Freezing Drizzle
9:18 AM 26.6 °F 19.1 °F 26.6 °F 100% 29.96 in 4.0 mi ENE 6.9 mph - N/A   Light Freezing Drizzle
9:26 AM 26.6 °F 19.1 °F 26.6 °F 100% 29.95 in 9.0 mi ENE 6.9 mph - N/A   Overcast
9:58 AM 27.0 °F 19.5 °F 26.8 °F 99% 30.04 in 10.0 mi ENE 6.9 mph - 0.00 in   Overcast
10:58 AM 28.4 °F 19.1 °F 28.4 °F 100% 30.00 in 10.0 mi ENE 10.4 mph - N/A   Overcast
11:58 AM 28.4 °F 20.4 °F 28.4 °F 100% 29.96 in 10.0 mi ENE 8.1 mph - N/A   Mostly Cloudy
12:58 PM 28.8 °F 22.6 °F 28.8 °F 100% 29.92 in 10.0 mi ENE 5.8 mph - N/A   Mostly Cloudy
1:58 PM 28.8 °F 22.6 °F 28.8 °F 100% 29.91 in 10.0 mi East 5.8 mph - N/A   Mostly Cloudy
2:58 PM 29.5 °F 25.9 °F 29.5 °F 100% 29.90 in 10.0 mi ENE 3.5 mph - N/A   Overcast
3:58 PM 29.5 °F - 29.5 °F 100% 29.89 in 10.0 mi SE 2.3 mph - N/A   Overcast
4:12 PM 30.2 °F 26.7 °F 30.2 °F 100% 29.82 in 10.0 mi SE 3.5 mph - N/A   Overcast
4:37 PM 30.2 °F 24.3 °F 30.2 °F 100% 29.81 in 10.0 mi SSE 5.8 mph - N/A   Overcast
4:52 PM 28.4 °F 23.3 °F 28.4 °F 100% 29.81 in 7.0 mi SSE 4.6 mph - N/A Snow Light Snow
4:57 PM 28.4 °F 24.6 °F 28.4 °F 100% 29.81 in 5.0 mi SSE 3.5 mph - N/A Snow Light Snow
4:58 PM 28.4 °F 24.6 °F 28.4 °F 100% 29.90 in 5.0 mi SSE 3.5 mph - 0.00 in Snow Light Snow
5:23 PM 28.4 °F 24.6 °F 28.4 °F 100% 29.81 in 5.0 mi SE 3.5 mph - N/A Snow Light Snow
5:38 PM 28.4 °F - 28.4 °F 100% 29.81 in 2.5 mi East 2.3 mph - N/A Snow Light Snow
5:58 PM 28.8 °F 25.0 °F 28.8 °F 100% 29.89 in 2.5 mi East 3.5 mph - 0.00 in Snow Light Snow
6:23 PM 28.4 °F 23.3 °F 28.4 °F 100% 29.80 in 3.0 mi ESE 4.6 mph - N/A Snow Light Snow
6:28 PM 28.4 °F 22.2 °F 28.4 °F 100% 29.79 in 3.0 mi East 5.8 mph - N/A Snow Light Snow
6:43 PM 28.4 °F 22.2 °F 28.4 °F 100% 29.79 in 2.5 mi East 5.8 mph - N/A Snow Light Snow
6:58 PM 28.9 °F 22.8 °F 28.9 °F 100% 29.87 in 2.5 mi ESE 5.8 mph - 0.00 in Snow Light Snow
7:03 PM 28.4 °F 22.2 °F 28.4 °F 100% 29.79 in 3.0 mi East 5.8 mph - N/A Snow Light Snow
7:33 PM 28.4 °F 20.4 °F 28.4 °F 100% 29.78 in 2.5 mi East 8.1 mph - N/A Snow Light Snow
7:44 PM 28.4 °F 21.2 °F 28.4 °F 100% 29.78 in 2.5 mi East 6.9 mph - N/A Snow Light Snow
7:58 PM 29.1 °F 22.1 °F 29.1 °F 100% 29.86 in 2.5 mi East 6.9 mph - 0.01 in Snow Light Snow
8:08 PM 28.4 °F 21.2 °F 28.4 °F 100% 29.78 in 3.0 mi East 6.9 mph - N/A Snow Light Snow
8:28 PM 28.4 °F 22.2 °F 28.4 °F 100% 29.78 in 3.0 mi East 5.8 mph - N/A Snow Light Snow
8:38 PM 28.4 °F 22.2 °F 28.4 °F 100% 29.78 in 3.0 mi East 5.8 mph - N/A Snow Light Snow
8:48 PM 28.4 °F 22.2 °F 28.4 °F 100% 29.78 in 3.0 mi East 5.8 mph - N/A Snow Light Snow
8:58 PM 28.4 °F 21.2 °F 28.4 °F 100% 29.86 in 3.0 mi East 6.9 mph - 0.00 in Snow Light Snow
9:03 PM 28.4 °F 22.2 °F 28.4 °F 100% 29.78 in 3.0 mi East 5.8 mph - N/A Snow Light Snow
9:08 PM 28.4 °F 21.2 °F 28.4 °F 100% 29.78 in 3.0 mi East 6.9 mph - N/A Snow Light Snow
9:18 PM 28.4 °F 22.2 °F 28.4 °F 100% 29.78 in 3.0 mi East 5.8 mph - N/A Snow Light Snow
9:28 PM 28.4 °F 23.3 °F 28.4 °F 100% 29.78 in 3.0 mi East 4.6 mph - N/A Snow Light Snow
9:33 PM 28.4 °F 23.3 °F 28.4 °F 100% 29.78 in 2.5 mi East 4.6 mph - N/A Snow Light Snow
9:43 PM 28.4 °F 22.2 °F 28.4 °F 100% 29.78 in 3.0 mi East 5.8 mph - N/A   Overcast
9:53 PM 28.4 °F 23.3 °F 28.4 °F 100% 29.78 in 3.0 mi ENE 4.6 mph - N/A   Overcast
9:58 PM 29.1 °F 24.1 °F 29.1 °F 100% 29.86 in 3.0 mi NE 4.6 mph - 0.00 in   Overcast
10:18 PM 28.4 °F 22.2 °F 28.4 °F 100% 29.77 in 3.0 mi ENE 5.8 mph - N/A   Overcast
10:34 PM 28.4 °F 22.2 °F 28.4 °F 100% 29.78 in 3.0 mi ENE 5.8 mph - N/A   Overcast
10:44 PM 28.4 °F 21.2 °F 28.4 °F 100% 29.78 in 4.0 mi ENE 6.9 mph - N/A   Overcast
10:58 PM 28.9 °F 22.8 °F 28.9 °F 100% 29.86 in 5.0 mi ENE 5.8 mph - 0.00 in   Overcast
11:43 PM 28.4 °F 23.3 °F 28.4 °F 100% 29.77 in 9.0 mi NE 4.6 mph - N/A   Overcast
11:58 PM 29.1 °F 23.0 °F 29.1 °F 100% 29.85 in 10.0 mi ENE 5.8 mph - N/A   Overcast